EST,Max TemperatureF,Mean TemperatureF,Min TemperatureF,Max Dew PointF,MeanDew PointF,Min DewpointF,Max Humidity, Mean Humidity, Min Humidity, Max Sea Level PressureIn, Mean Sea Level PressureIn, Min Sea Level PressureIn, Max VisibilityMiles, Mean VisibilityMiles, Min VisibilityMiles, Max Wind SpeedMPH, Mean Wind SpeedMPH, Max Gust SpeedMPH,PrecipitationIn, CloudCover, Events, WindDirDegrees
2012-2-1,66,52,39,61,50,43,100,79,56,30.29,30.20,30.11,10,9,2,12,2,,0.00,3,,187
2012-2-2,69,62,55,59,50,45,94,61,43,30.23,30.17,30.12,10,8,2,8,5,,0.00,4,,325
2012-2-3,62,50,39,45,37,32,100,52,34,30.35,30.30,30.27,10,10,10,10,3,,0.00,1,,103
2012-2-4,71,61,51,61,53,39,100,74,54,30.25,30.18,30.06,10,10,10,14,5,20,0.00,5,,155
2012-2-5,69,61,53,63,54,46,100,69,43,30.11,30.07,30.04,10,9,0,12,4,16,0.00,4,,298
2012-2-6,57,52,46,54,51,48,100,97,82,30.19,30.14,30.11,10,10,9,6,1,,0.00,4,,64
2012-2-7,60,48,35,45,34,25,100,48,25,30.21,30.16,30.11,10,8,0,7,1,,0.00,0,,340
2012-2-8,60,46,33,43,33,30,100,46,34,30.25,30.18,30.14,10,10,10,17,7,20,0.00,2,,330
2012-2-9,53,42,32,36,32,28,100,70,38,30.30,30.24,30.18,10,10,10,7,2,,0.00,0,,17
2012-2-10,51,42,32,43,38,36,100,71,54,30.18,30.10,29.99,10,9,5,5,1,,0.00,2,,262
2012-2-11,42,36,30,43,26,7,100,67,37,30.26,30.08,29.94,10,10,4,24,9,34,0.00,4,,316
2012-2-12,42,32,21,12,7,3,58,41,24,30.45,30.38,30.33,10,10,2,13,9,17,0.00,0,,323
2012-2-13,51,34,17,23,17,12,100,58,22,30.32,30.23,30.10,10,9,2,7,3,,0.00,1,,203
2012-2-14,48,42,35,48,44,37,100,96,87,30.12,30.05,30.00,10,8,3,9,3,,0.00,7,,144
2012-2-15,69,50,32,50,45,37,100,57,33,30.22,30.15,30.11,10,6,0,12,1,,0.00,3,,143
2012-2-16,64,55,46,64,62,59,100,100,100,30.14,30.09,30.04,10,7,0,12,2,,0.00,6,,289
2012-2-17,66,55,44,50,43,34,100,59,32,30.14,30.08,30.03,10,10,4,7,3,,0.00,0,,16
2012-2-18,62,52,41,55,53,48,100,87,72,30.07,30.00,29.91,10,8,2,12,2,,0.00,4,,68
2012-2-19,55,47,39,55,46,39,100,97,87,30.02,29.79,29.71,10,8,2,22,6,28,0.00,7,,324
2012-2-20,57,44,32,39,36,34,100,72,44,30.23,30.16,30.05,10,10,9,9,4,,0.00,0,,87
2012-2-21,62,48,33,52,46,39,100,76,63,30.24,30.18,30.07,10,10,10,12,4,21,0.00,4,,189
2012-2-22,69,55,41,59,55,52,100,72,53,30.06,29.92,29.71,10,9,1,15,4,21,0.00,5,,227
2012-2-23,75,68,60,66,62,57,100,75,53,29.76,29.69,29.63,10,10,9,20,9,32,0.00,5,,219
2012-2-24,69,58,48,70,55,27,100,88,38,29.98,29.79,29.69,10,7,0,16,8,28,0.00,7,,254
2012-2-25,55,44,32,32,25,16,100,52,22,30.32,30.25,30.16,10,10,10,16,8,24,0.00,0,,313
2012-2-26,62,47,32,36,25,19,100,44,22,30.40,30.34,30.29,10,10,10,13,3,,0.00,1,,136
2012-2-27,68,58,48,55,52,45,100,79,56,30.41,30.35,30.30,10,9,2,7,2,,0.00,6,,73
2012-2-28,62,55,48,63,60,55,100,98,77,30.36,30.30,30.24,10,10,1,8,2,,0.00,6,,113
2012-2-29,71,66,60,68,65,63,100,87,73,30.22,30.12,29.98,10,9,2,14,7,22,0.00,7,,200